FENGYUN 1C DEB, 33603

Orbit data source: Space-Track

FENGYUN 1C DEB, 33603 is space debris in SSO originally from a launch on Mon, 10 May 1999 UTC launched from the Taiyaun Space Center, China (TSC). Fengyun 1C debris stems from the Chinese weather satellite Fengyun-1C, which was intentionally destroyed by a Chinese anti-satellite missile in 2007. This event dramatically increased the amount of space debris, with thousands of trackable fragments posing hazards to satellites and human spaceflight. The Fengyun 1C debris cloud has become a focal point in discussions about space sustainability and the need for international regulations to prevent the creation of new debris.

Loading next visibility...
Identifier
33603, 1999-025DCL
Orbit
SSO
Country
Flag of CNCN / PRC
Related business
Manufacturer
Unknown
Mission
Spacecraft
Bus & Motor
Unknown
Mass
Unknown
Launch date (UTC)
1999-05-10 (27 years ago)
Launch vehicle
Unknown
Launch site
Taiyaun Space Center, China (TSC)
Object type
Payload
Rocket body
Debris
Shape & HBR
Unknown shape, 0.1 m
Radar Cross Section
Small (<0.1 m²)

Expand to show TLE details & history
Last TLE update: 2 days ago

TLE from 2 days ago
0 FENGYUN 1C DEB
1 33603U 99025DCL 26261.65833787  .00001050  00000-0  98362-4 0  9992
2 33603  98.8375 230.2935 0214221 265.3940  92.2774 14.81224872 29991
Epoch: 2026-09-18T15:48Z
TLE epoch observation values (Epoch: 2026-09-18T15:48:00.391Z)
Latitude
-0.0001°
Longitude
-4.28618°
Altitude
637.623 km
Speed
7.534 km/s
True Right ascension
15h 21m 10s
True Declination
0° 00' 00"
Sunlit
Object was in daylight at epoch
Visualization orbit readout
Latitude
Unknown
Longitude
Unknown
Altitude
Unknown
Speed
Unknown
Apparent Right ascension
Unknown
Apparent Declination
Unknown
Sunlit
N/A
Visualization observer readout
Local Sidereal Time
14:01:25
Azimuth
Unknown
Elevation
Unknown
Doppler factor
Unknown
Orbital elements
Apogee altitude
772.511 km
Perigee altitude
472.573 km
Semi-major axis
7,000.679 km
Eccentricity
0.02142
Inclination
98.8375°
RAAN
230.2935°
Arg. of periapsis
265.394°
True anomaly
94.7269°
Mean anomaly
92.2774°
Eccentric anomaly
93.5025°
Mean motion
3.70538 °/min
Orbital period
97.16 mins
BSTAR
0.000098362
Loading maneuver chart data...
Computing Atmospheric mass density...

Documentation

Showing up to 5 results
|